Location: Aula-Vintri
(58.3875°N, 22.4322°E)
Time: 06:39:08
(UTC+00:00)

Cosmos 2016 Rocket - Pass Details

Date: 13 October 2019
Orbit: 947 x 1000 km, 83.0° (Epoch: 12 November)

Event Time Altitude Azimuth Distance (km) Brightness Sun altitude
Rises 18:12:24 0° 347° (NNW) 3,661 7.5 -21.6°
Reaches altitude 10° 18:14:56 10° 350° (N) 2,718 6.7 -21.9°
Maximum altitude 18:21:08 68° 73° (ENE) 1,049 3.9 -22.7°
Enters shadow 18:23:14 43° 141° (SE) 1,351 4.3 -22.9°
